Weather History for Bonilla Island, BC

Change the Weather History Date:

Saturday, December 8, 2012

  Actual Average Record
Temperature  
Mean Temperature 38 °F -  
Max Temperature 40 °F - - ()
Min Temperature 36 °F - - ()
Degree Days  
Heating Degree Days 27    
Moisture  
Dew Point 35 °F    
Average Humidity 87    
Maximum Humidity 94    
Minimum Humidity 78    
Precipitation  
Precipitation 0.03 in - - ()
Sea Level Pressure  
Sea Level Pressure 30.13 in    
Wind  
Wind Speed 9 mph ()    
Max Wind Speed 26 mph    
Max Gust Speed 44 mph    
T = Trace of Precipitation, MM = Missing Value Source: Averaged Metar Reports

Daily Weather History Graph

Daily Weather History Graph

Search for Another Location

Airport:

Trip Planner

Search our weather history database for the weather conditions in past years. The results will help you decide how hot, cold, wet, or windy it might be!

Date:

Astronomy

Dec. 08, 2012 Rise Set
Actual Time 8:45 AM PST 4:23 PM PST
Civil Twilight 8:03 AM PST 5:05 PM PST
Nautical Twilight 7:18 AM PST 5:51 PM PST
Astronomical Twilight 6:35 AM PST 6:33 PM PST
Moon 2:40 AM PST (12/8) 1:30 PM PST (12/8)
Length of Visible Light 9h 02m
Length of Day
7h 37m
Waning Crescent, 27% of the Moon is Illuminated
Dec 8
Waning Crescent
Dec 13
New
Dec 19
First Quarter
Dec 28
Full
Jan 4
Last Quarter

Hourly Weather History & Observations

Time (PST) Temp. Windchill Dew Point Humidity Pressure Visibility Wind Dir Wind Speed Gust Speed Precip Events Conditions
12:00 AM 39.9 °F 31.1 °F 34.3 °F 80% 30.09 in - NW 17.3 mph - N/A   Unknown
1:00 AM 39.9 °F 31.4 °F 33.6 °F 78% 30.09 in - NNW 16.1 mph - 0.02 in   Unknown
2:00 AM 39.9 °F 32.1 °F 33.4 °F 78% 30.11 in - NNW 13.8 mph - N/A   Unknown
3:00 AM 39.2 °F 32.5 °F 33.3 °F 79% 30.14 in - North 10.4 mph - N/A   Unknown
4:00 AM 38 °F - 34 °F 78% 30.15 in - NE 3.5 mph - -  
4:00 AM 37.6 °F 35.1 °F 33.6 °F 86% 30.15 in - NE 3.5 mph - N/A   Unknown
5:00 AM 36.7 °F 34.1 °F 33.4 °F 88% 30.16 in - ENE 3.5 mph - N/A   Unknown
6:00 AM 36.7 °F - 33.8 °F 89% 30.16 in - ENE 2.3 mph - N/A   Unknown
7:00 AM 36.5 °F 33.9 °F 33.8 °F 90% 30.17 in - East 3.5 mph - N/A   Unknown
8:00 AM 37.6 °F 35.1 °F 35.1 °F 91% 30.17 in - SE 3.5 mph - N/A   Unknown
9:00 AM 37.8 °F 34.2 °F 34.9 °F 89% 30.17 in - SSE 4.6 mph - N/A   Unknown
10:00 AM 38 °F - 35 °F 87% 30.17 in - SSE 6.9 mph - -  
10:00 AM 37.8 °F 32.5 °F 35.4 °F 91% 30.17 in - SSE 6.9 mph - N/A   Unknown
11:00 AM 38.5 °F 33.4 °F 35.8 °F 90% 30.18 in - SSE 6.9 mph - N/A   Unknown
12:00 PM 38.3 °F 31.9 °F 35.8 °F 91% 30.18 in - SSE 9.2 mph - N/A   Unknown
1:00 PM 38.1 °F 32.3 °F 35.4 °F 90% 30.18 in - SE 8.1 mph - N/A   Unknown
2:00 PM 38.5 °F 32.7 °F 35.6 °F 89% 30.17 in - SE 8.1 mph - N/A   Unknown
3:00 PM 38.3 °F 31.9 °F 35.1 °F 88% 30.17 in - SSE 9.2 mph - N/A   Unknown
4:00 PM 37.8 °F 31.8 °F 34.5 °F 88% 30.17 in - SSE 8.1 mph - N/A   Unknown
5:00 PM 37.8 °F 30.7 °F 34.0 °F 86% 30.16 in - SE 10.4 mph 18.4 mph N/A   Unknown
6:00 PM 38.1 °F 31.2 °F 34.0 °F 85% 30.14 in - SE 10.4 mph 18.4 mph N/A   Unknown
7:00 PM 38.5 °F 30.7 °F 34.5 °F 86% 30.11 in - SSE 12.7 mph 21.9 mph N/A   Unknown
8:00 PM 37.9 °F 29.2 °F 34.5 °F 87% 30.10 in - SSE 15.0 mph 29.9 mph N/A   Unknown
9:00 PM 36.9 °F 29.1 °F 35.1 °F 93% 30.09 in - SE 11.5 mph 26.5 mph N/A   Unknown
10:00 PM 38 °F - 36 °F 90% 30.03 in - SSE 19.6 mph - -  
10:00 PM 37.9 °F 27.9 °F 36.1 °F 93% 30.03 in - SSE 19.6 mph 33.4 mph 0.03 in   Unknown
11:00 PM 39.2 °F 28.0 °F 37.6 °F 94% 30.02 in - SSE 26.5 mph 43.7 mph N/A   Unknown